User: anonymous   Login
Location: Bowman Observatory
(41.0326°N, 73.6210°W)
Time: 11:53:26
(UTC-05:00)
Language:

Cosmos 2298 Rocket - Orbit

View from above orbital plane
View from above orbital plane
View from above satellite
View from above satellite

Ground track
Ground track

The orbit data is extracted from the following two-line orbital elements,

1 23432U 94083B   16039.22998052  .00000064  00000-0  32816-4 0  9998
2 23432  74.0328 123.0499 0004093  90.7715 300.2503 14.33429007105386
Epoch (UTC): 08 February 2016 05:31:10
Eccentricity: 0.0004093
inclination: 74.0328°
perigee height: 777 km
apogee height: 783 km
right ascension of ascending node: 123.0499°
argument of perigee: 90.7715°
revolutions per day: 14.33429007
mean anomaly at epoch: 300.2503°
orbit number at epoch: 10538

The dashed part of the orbit path shows where the satellite is in the earth's shadow,  

DLR